BEIDOU 5 1 36828U 10036A 25135.66264285 -.00000053 00000-0 00000-0 0 9991 2 36828 54.2699 166.5545 0049422 217.1885 195.1395 1.00286931 54113 BEIDOU 9 1 37763U 11038A 25135.65728131 .00000046 00000-0 00000-0 0 9998 2 37763 54.5727 169.2291 0142888 230.9568 164.2329 1.00284516 50663 BEIDOU 11 1 38091U 12008A 25137.17529520 .00000070 00000-0 00000+0 0 9997 2 38091 2.5867 71.2588 0009968 268.5751 17.0613 1.00272816 48500 BEIDOU 12 1 38250U 12018A 25136.37881078 -.00000050 00000-0 00000-0 0 9995 2 38250 56.0927 318.2152 0020450 270.1331 89.6301 1.86233731 88556 BEIDOU 13 1 38251U 12018B 25136.31067157 -.00000050 00000-0 00000-0 0 9994 2 38251 55.9963 317.4634 0011375 273.6228 86.2438 1.86232144 88551 BD-17 1 40549U 15019A 25135.91887578 -.00000169 00000-0 00000-0 0 9994 2 40549 49.9502 300.2353 0038709 191.4198 167.3237 1.00285470 37083 BD-19 1 40749U 15037B 25136.23462483 -.00000051 00000-0 00000-0 0 9996 2 40749 55.2153 315.6690 0003818 25.4196 334.5936 1.86253924 66739 BD-20 1 40938U 15053A 25136.32574322 -.00000138 00000-0 00000-0 0 9996 2 40938 49.8387 263.4936 0058471 187.6337 356.6268 1.00274880 35372 BEIDOU IGSO-6 1 41434U 16021A 25136.71364096 -.00000152 00000-0 00000-0 0 9998 2 41434 59.6664 41.9973 0054250 229.9401 312.7937 1.00292978 33501